Wetbulb
58.73 58.74 58.75 59.13 58.99 59.12 59.08 58.99 58.76 58.52 58.95 58.44 58.85 58.62 58.29 58.02 57.61 57.65 57.79 57.87 58.02 58.15 58.21 57.92 57.50 57.76 48.55 42.14 40.01 44.27 53.69 49.62 44.97 44.60 42.32 42.66 40.99 40.89 38.15 37.34 39.03 37.80 37.52 37.52 37.45 36.44 36.31
58.22 58.54 58.84 59.35 59.58 59.50 59.47 59.38 58.55 58.21 58.80 58.80 58.55 58.12 57.95 57.70 57.34 57.16 57.12 57.34 57.74 58.01 57.77 57.04 56.97 56.89 45.28 38.96 41.74 44.62 44.91 43.13 43.52 43.38 41.41 42.04 40.36 40.36 38.07 36.90 37.55 37.89 37.46 36.75 37.31 37.30 37.02
58.36 58.30 58.99 59.30 59.46 59.50 59.34 59.15 58.82 58.67 58.79 58.81 58.61 58.07 57.48 57.26 57.13 56.86 56.87 56.64 56.73 57.05 56.66 55.75 56.67 49.90 42.19 40.54 41.89 44.66 44.81 42.10 42.97 43.08 42.72 42.50 42.90 41.64 39.78 36.87 38.03 38.24 37.54 37.14 36.24 37.35 37.20
57.71 58.56 59.20 59.21 59.20 59.14 59.01 58.81 58.62 58.55 58.54 58.34 58.11 57.75 57.35 56.95 56.77 56.41 56.08 55.88 55.90 56.01 55.69 55.57 56.94 45.18 40.02 43.35 43.02 44.27 44.53 43.24 44.17 43.80 42.98 42.71 43.22 41.17 39.57 38.45 38.08 36.41 35.80 33.52 35.38 36.56 37.49
57.31 58.18 58.98 58.90 58.89 58.83 58.61 58.41 58.16 58.16 58.16 57.86 57.50 57.26 56.91 56.53 56.31 55.98 55.98 55.69 56.01 55.63 55.23 55.32 44.55 42.18 38.62 48.76 42.52 42.45 43.21 42.27 42.42 42.83 44.20 46.43 42.74 39.10 39.28 36.25 33.68 32.85 30.56 32.61 34.05 35.31 35.50
57.56 57.90 58.50 58.42 58.31 58.21 58.15 58.07 57.83 57.66 57.64 57.25 56.88 56.62 56.27 56.14 56.04 56.33 55.56 54.07 55.11 52.11 49.14 46.95 44.61 39.95 40.98 39.21 41.65 42.66 43.23 43.42 42.24 43.03 43.49 43.16 38.60 35.69 33.18 33.36 28.21 30.05 30.43 30.23 31.17 33.16 33.61
57.26 57.52 58.06 57.84 57.79 57.73 57.71 57.48 57.14 56.89 56.81 56.53 56.39 56.08 55.89 55.66 56.02 54.63 49.41 42.88 41.97 41.12 41.48 39.80 37.55 37.91 39.39 42.31 42.79 42.52 42.56 42.66 42.87 41.69 36.51 38.43 35.60 32.36 31.67 31.41 31.34 31.62 30.23 29.91 31.25 32.64 32.47
56.66 57.34 57.50 57.32 57.13 57.06 56.81 56.43 56.22 56.24 56.37 56.08 55.83 55.70 55.74 55.57 55.46 52.56 44.00 42.07 39.11 40.42 37.66 38.81 38.89 39.36 40.25 40.96 38.63 40.72 42.87 39.71 39.28 35.76 35.96 34.88 31.48 30.88 32.99 32.71 32.49 31.81 29.71 29.62 31.43 32.16 32.19
56.49 56.91 56.95 56.62 56.38 56.04 55.62 55.53 55.62 55.84 55.96 55.81 55.53 55.45 55.64 54.88 53.87 45.38 40.43 39.90 41.52 41.64 37.83 38.32 39.09 38.88 38.70 40.49 36.88 37.86 40.33 37.95 35.87 33.63 32.30 31.18 30.07 32.21 32.01 31.13 31.45 30.10 29.01 27.85 28.76 31.03 30.44
56.17 56.50 56.08 55.74 55.26 54.89 54.88 55.01 55.18 55.43 55.60 55.60 55.35 55.38 55.29 52.78 46.66 39.72 38.68 40.83 42.33 41.84 32.27 33.77 36.44 38.87 40.35 39.67 36.32 40.81 40.33 38.25 35.52 32.95 31.77 30.53 30.59 30.81 30.78 30.95 31.04 28.74 30.76 30.71 29.74 27.65 24.83
55.82 55.55 55.11 54.41 54.27 54.38 54.37 54.54 54.71 54.94 55.49 55.43 55.24 55.18 54.43 50.46 41.46 39.05 39.15 42.09 42.63 41.03 21.79 34.93 37.04 42.13 40.20 36.85 36.19 37.67 40.05 38.39 33.19 32.42 31.85 30.36 29.48 30.03 30.53 30.80 31.11 29.57 31.37 29.84 28.23 23.94 23.21
54.93 54.46 53.63 53.66 53.82 53.67 53.66 54.00 54.15 54.54 55.09 55.11 55.00 54.53 51.97 46.20 43.01 40.84 42.94 42.53 41.25 31.38 20.77 31.89 35.85 34.34 33.70 35.78 35.52 37.24 37.45 39.80 36.21 32.93 30.91 28.72 30.22 30.19 30.05 30.48 30.68 31.04 29.74 27.97 25.60 25.25 18.72
53.84 53.24 52.98 53.00 52.97 53.06 53.19 53.29 53.69 54.05 54.56 54.68 54.10 52.74 47.68 44.80 40.19 42.78 44.54 39.47 30.41 23.69 32.28 30.03 30.62 32.71 30.59 30.62 32.39 32.67 31.54 28.58 28.97 27.72 26.16 30.32 29.15 28.61 30.74 30.16 31.77 29.65 26.44 20.22 18.66 17.96 21.45
52.94 52.56 52.28 52.21 52.28 52.38 52.40 52.49 52.78 53.17 53.83 54.61 52.24 49.76 46.66 44.46 42.75 44.35 40.26 34.60 24.80 28.20 28.80 31.96 30.71 30.36 28.91 30.03 29.77 30.26 29.64 28.21 28.47 26.55 21.23 23.38 24.40 28.43 29.13 28.30 26.73 27.92 23.89 19.80 14.73 17.35 20.80
52.23 51.84 51.65 51.64 51.75 51.79 51.79 51.87 52.16 53.17 53.85 54.38 51.66 45.59 43.58 44.67 43.15 42.03 37.27 25.86 27.49 27.71 30.65 29.66 29.53 26.70 26.63 30.32 28.40 28.13 25.94 22.96 25.59 27.80 25.53 21.69 25.46 26.46 28.18 28.94 28.48 27.49 25.33 25.60 17.45 18.95 15.92
51.57 51.40 51.25 51.17 51.13 50.97 51.06 51.14 51.52 52.87 53.92 52.63 43.69 41.92 42.88 44.98 41.92 38.08 32.33 30.45 28.21 30.45 30.17 29.67 26.85 27.01 24.15 25.56 26.78 25.52 25.27 26.62 28.57 29.55 26.90 26.24 22.23 26.30 26.74 28.37 28.57 26.85 27.46 22.93 18.37 13.46 14.14
51.14 50.96 50.72 50.55 50.33 50.05 50.22 50.37 50.89 51.98 54.20 51.43 40.00 38.67 42.44 43.10 39.91 34.24 27.14 25.14 31.59 30.32 30.88 28.96 26.20 26.26 26.12 25.61 25.02 24.20 25.65 28.18 30.45 28.52 28.55 23.06 22.89 22.93 25.46 24.71 21.21 23.66 18.60 21.03 21.93 19.95 16.25
50.71 50.39 50.05 49.68 49.42 49.23 49.39 49.43 50.14 51.63 53.34 45.33 35.98 33.66 42.73 40.21 34.00 26.12 27.66 30.15 34.88 29.90 30.72 29.37 28.58 27.46 26.10 26.71 24.76 24.69 25.31 28.69 29.37 29.77 26.67 26.03 21.14 18.69 23.01 18.65 17.14 20.77 20.70 20.00 20.77 15.02 17.72
50.10 49.84 49.39 48.93 48.68 48.55 48.57 48.58 49.24 51.07 51.80 42.44 37.76 37.43 41.68 39.44 28.70 27.36 29.93 30.40 30.60 30.79 30.05 29.97 28.67 29.57 28.37 26.69 24.66 25.16 26.79 31.23 30.57 30.33 25.95 25.20 22.75 16.55 21.41 20.01 22.38 20.88 19.45 17.67 21.36 21.58 16.14
49.36 49.18 48.87 48.53 48.21 48.40 48.28 48.40 48.23 49.95 51.79 41.33 35.91 31.90 35.43 35.96 31.95 28.52 28.32 30.09 30.00 31.70 30.02 29.76 28.54 28.74 27.18 25.84 27.22 25.15 26.58 30.60 31.23 30.69 37.04 33.92 23.56 21.76 21.24 23.63 22.97 20.94 20.63 20.34 22.15 18.51 21.14
48.74 48.64 48.51 48.32 47.98 47.72 47.95 48.34 48.04 48.39 50.22 42.38 35.62 30.00 34.37 27.32 32.56 30.37 29.90 29.70 30.48 31.62 32.76 31.39 29.97 29.50 26.14 23.60 27.91 26.14 28.68 31.27 31.60 34.28 31.97 29.77 20.03 24.82 26.05 27.85 25.21 22.52 22.64 23.12 22.68 25.57 24.86
48.30 48.23 48.08 47.91 47.70 47.38 47.98 47.91 47.13 46.94 48.25 40.23 35.04 32.59 31.85 31.03 31.79 28.94 30.74 28.90 29.42 29.79 30.82 31.25 30.19 30.34 28.66 26.37 28.94 28.14 28.88 29.82 30.66 30.10 29.54 28.08 21.40 19.18 14.32 27.47 25.25 22.95 22.43 22.03 24.97 26.00 25.91
47.90 47.80 47.50 47.19 47.13 47.01 46.75 47.43 46.43 45.58 43.43 35.24 38.25 36.52 34.30 31.32 28.62 26.28 27.67 29.28 27.92 27.88 31.57 32.38 29.20 27.37 27.72 29.26 28.12 29.57 29.90 30.06 30.07 26.65 28.34 27.31 24.33 23.13 18.56 24.49 24.00 16.67 17.88 20.86 19.15 15.85 19.52
47.39 46.93 46.85 46.86 46.70 46.56 46.30 46.60 46.22 44.39 40.64 35.68 36.17 33.18 27.58 24.90 25.87 27.91 26.75 27.72 26.94 27.43 25.79 28.86 28.80 25.87 28.39 29.20 29.26 27.16 26.68 27.55 27.29 27.52 29.83 21.58 21.19 24.18 18.05 19.67 9.63 16.98 15.70 16.57 16.00 16.00 22.95
46.37 46.54 46.56 46.55 46.36 46.09 45.95 45.83 45.77 44.96 42.03 33.04 32.52 29.40 24.06 20.50 26.60 27.00 25.39 26.05 23.39 24.76 25.08 27.78 29.04 26.78 27.54 26.46 21.94 19.26 18.26 19.91 21.14 21.83 22.96 30.59 27.62 22.77 13.81 13.17 18.21 20.89 20.31 19.46 22.04 17.43 23.62
45.99 46.09 46.30 46.25 46.18 45.89 45.57 45.43 45.50 45.05 42.85 33.53 33.38 31.30 26.49 22.53 23.11 27.46 24.12 24.12 19.18 17.06 19.20 24.77 25.71 26.97 27.14 24.39 20.43 8.18 9.17 15.89 15.43 17.16 21.63 25.89 28.02 22.21 11.21 12.01 6.85 17.44 23.48 26.06 25.84 17.45 22.13
45.95 45.97 45.87 45.80 45.84 45.72 45.60 45.18 45.06 44.96 43.23 34.59 32.08 31.20 26.92 19.45 26.26 25.56 20.98 20.92 25.70 19.38 16.04 18.91 19.82 23.53 25.14 19.97 17.02 13.99 12.23 17.82 13.19 13.36 11.93 10.74 11.28 16.98 13.77 10.09 13.23 21.92 23.21 27.70 11.72 14.10 24.47
45.53 45.41 45.24 45.29 45.41 45.52 45.46 45.09 44.65 44.70 43.81 33.56 30.64 32.15 27.17 19.67 25.45 28.92 29.64 24.43 23.96 21.43 15.04 16.57 16.58 16.91 15.88 13.85 16.53 14.12 8.05 11.34 16.46 15.49 14.23 10.59 6.49 7.26 14.26 9.37 3.61 24.43 23.29 15.55 20.12 23.38 23.58
45.09 45.04 44.99 45.04 45.08 45.23 45.26 44.94 44.30 44.45 43.72 36.31 29.17 33.02 31.49 25.42 24.59 28.26 28.67 28.32 27.27 26.87 22.27 21.00 17.50 19.25 20.68 15.12 18.90 19.55 14.30 7.57 10.60 6.14 13.18 8.35 13.22 10.01 14.58 14.45 21.13 24.27 23.76 23.09 24.95 22.20 21.47
MSLP
1018.24 1017.98 1017.67 1017.65 1017.40 1017.09 1016.80 1016.59 1016.31 1016.07 1015.79 1015.33 1015.13 1014.87 1014.58 1014.40 1014.14 1014.07 1014.03 1013.99 1013.75 1013.70 1013.77 1013.67 1013.33 1013.12 1013.29 1013.34 1013.33 1013.14 1012.99 1012.88 1012.87 1012.93 1013.03 1012.99 1013.18 1013.54 1014.13 1014.45 1014.76 1015.07 1015.62 1015.89 1016.23 1016.43 1016.56
1018.31 1018.11 1017.79 1017.61 1017.38 1017.04 1016.69 1016.51 1016.29 1015.93 1015.52 1015.22 1015.00 1014.65 1014.38 1014.52 1014.15 1014.16 1013.92 1013.77 1013.57 1013.55 1013.61 1013.34 1013.21 1013.18 1013.40 1013.66 1013.22 1013.21 1013.05 1013.03 1012.97 1012.87 1013.10 1013.15 1013.27 1013.58 1014.31 1014.77 1015.00 1015.34 1015.67 1016.08 1016.41 1016.73 1016.86
1018.57 1018.15 1017.94 1017.59 1017.43 1017.07 1016.68 1016.53 1016.23 1015.82 1015.45 1015.34 1015.01 1014.76 1014.69 1014.27 1014.07 1013.98 1013.75 1013.57 1013.42 1013.46 1013.22 1013.22 1013.14 1013.27 1013.47 1013.41 1013.20 1013.20 1013.03 1013.14 1013.07 1012.87 1013.13 1013.40 1013.40 1013.80 1014.39 1015.08 1015.32 1015.51 1015.97 1016.37 1016.76 1016.90 1017.05
1018.67 1018.26 1018.12 1017.78 1017.52 1017.25 1016.88 1016.53 1016.26 1015.93 1015.65 1015.28 1014.90 1014.77 1014.45 1014.22 1014.09 1013.80 1013.56 1013.48 1013.16 1013.08 1013.09 1013.09 1013.16 1013.45 1013.21 1013.05 1013.22 1013.29 1013.31 1013.28 1013.11 1012.89 1013.14 1013.46 1013.57 1014.14 1014.65 1015.37 1015.62 1015.98 1016.20 1016.74 1017.18 1017.23 1017.02
1018.66 1018.33 1018.18 1017.89 1017.54 1017.27 1016.92 1016.57 1016.28 1015.95 1015.57 1015.27 1014.99 1014.66 1014.39 1014.13 1013.89 1013.51 1013.28 1012.98 1012.83 1012.91 1013.01 1013.09 1013.34 1013.40 1013.21 1013.10 1013.31 1013.54 1013.48 1013.37 1013.22 1013.26 1013.41 1013.57 1013.97 1015.06 1015.38 1015.70 1016.35 1016.58 1016.72 1017.07 1017.46 1017.93 1017.94
1018.63 1018.40 1018.28 1018.05 1017.69 1017.33 1016.94 1016.63 1016.25 1015.94 1015.59 1015.28 1014.91 1014.51 1014.19 1013.82 1013.52 1013.16 1012.93 1012.72 1012.79 1012.88 1013.12 1013.31 1013.44 1013.72 1013.30 1013.38 1013.47 1013.55 1013.56 1013.38 1013.35 1013.45 1013.70 1014.12 1015.04 1015.68 1016.25 1016.33 1016.75 1016.73 1016.97 1017.35 1017.94 1018.47 1018.37
1018.74 1018.28 1018.31 1018.15 1017.77 1017.38 1016.99 1016.66 1016.27 1015.88 1015.47 1015.05 1014.59 1014.26 1013.94 1013.52 1013.28 1013.02 1012.97 1013.00 1013.59 1013.69 1013.41 1013.45 1013.53 1013.48 1013.42 1013.57 1013.60 1013.82 1013.76 1013.52 1013.47 1013.80 1014.47 1015.04 1015.83 1016.30 1016.46 1016.48 1016.55 1016.71 1017.20 1017.84 1018.12 1018.81 1018.97
1018.76 1018.19 1018.24 1018.17 1017.85 1017.47 1017.11 1016.71 1016.24 1015.77 1015.35 1014.88 1014.49 1014.14 1013.75 1013.44 1013.14 1013.05 1013.09 1013.69 1014.28 1014.58 1014.06 1013.74 1013.58 1013.55 1013.56 1013.64 1013.75 1013.87 1013.78 1013.87 1013.88 1014.45 1015.03 1015.77 1016.24 1016.62 1016.72 1016.83 1017.01 1017.35 1017.86 1018.27 1018.56 1019.05 1019.31
1018.80 1018.27 1018.33 1018.30 1018.02 1017.59 1017.16 1016.65 1016.21 1015.71 1015.28 1014.84 1014.41 1013.98 1013.63 1013.27 1013.02 1013.28 1013.76 1014.44 1014.67 1014.65 1014.37 1013.98 1013.64 1013.60 1013.69 1013.76 1014.00 1014.09 1014.07 1014.06 1014.40 1015.06 1015.58 1016.30 1016.92 1017.03 1017.17 1017.47 1017.67 1017.99 1018.47 1018.96 1019.65 1019.69 1019.96
1018.80 1018.37 1018.40 1018.35 1018.07 1017.64 1017.14 1016.70 1016.21 1015.61 1015.20 1014.81 1014.33 1013.87 1013.55 1013.11 1013.39 1014.02 1014.40 1014.69 1014.63 1014.65 1014.61 1014.25 1013.82 1013.62 1013.76 1013.77 1014.29 1014.36 1014.33 1014.48 1015.08 1015.55 1016.22 1016.89 1017.28 1017.51 1017.75 1017.93 1018.23 1018.87 1019.11 1019.63 1020.30 1020.81 1021.27
1018.84 1018.59 1018.59 1018.43 1018.15 1017.71 1017.21 1016.77 1016.20 1015.54 1015.05 1014.68 1014.13 1013.74 1013.59 1013.01 1013.71 1014.40 1014.99 1014.74 1014.66 1014.61 1015.07 1014.26 1013.73 1013.61 1013.66 1014.10 1014.51 1014.54 1014.65 1014.49 1015.33 1016.21 1016.91 1017.27 1017.78 1018.08 1018.40 1018.59 1018.79 1019.61 1019.96 1020.64 1021.41 1022.00 1022.24
1018.98 1018.90 1018.82 1018.53 1018.22 1017.69 1017.17 1016.66 1016.07 1015.43 1015.01 1014.56 1014.10 1013.74 1013.49 1013.74 1014.21 1014.93 1014.85 1014.69 1014.73 1015.19 1014.65 1013.98 1013.75 1013.79 1013.87 1014.01 1014.34 1014.50 1014.69 1015.03 1015.92 1016.56 1017.26 1018.00 1018.39 1018.66 1018.99 1019.48 1019.71 1020.33 1020.85 1021.52 1022.23 1022.53 1022.79
1019.17 1019.16 1018.99 1018.61 1018.19 1017.73 1017.24 1016.71 1016.04 1015.41 1014.94 1014.50 1014.13 1013.90 1013.66 1014.21 1014.89 1014.84 1014.83 1015.05 1015.68 1015.15 1014.40 1014.40 1014.22 1014.16 1014.29 1014.44 1014.63 1014.83 1015.26 1015.86 1016.53 1017.34 1017.99 1018.64 1018.96 1019.36 1019.57 1020.16 1020.63 1020.97 1021.62 1022.59 1023.00 1023.23 1022.47
1019.52 1019.39 1019.14 1018.71 1018.24 1017.81 1017.28 1016.64 1015.92 1015.41 1014.90 1014.42 1014.17 1013.99 1014.57 1014.85 1014.95 1014.86 1014.91 1015.36 1015.99 1014.98 1014.76 1014.69 1014.65 1014.47 1014.57 1014.80 1015.00 1015.26 1015.84 1016.69 1017.23 1017.69 1019.02 1019.45 1019.63 1020.02 1020.37 1020.78 1021.10 1021.65 1021.99 1022.63 1023.07 1023.78 1022.82
1019.84 1019.57 1019.31 1018.89 1018.38 1017.90 1017.32 1016.65 1015.99 1015.36 1014.83 1014.39 1014.21 1014.52 1014.80 1014.99 1014.86 1014.88 1015.36 1016.09 1015.71 1015.53 1015.43 1015.25 1014.97 1014.89 1015.01 1015.19 1015.51 1015.70 1016.29 1017.16 1017.72 1018.23 1018.99 1019.70 1020.11 1020.60 1020.94 1021.36 1021.98 1022.45 1022.60 1022.51 1023.43 1024.58 1023.56
1020.03 1019.76 1019.47 1019.05 1018.50 1018.00 1017.37 1016.62 1015.93 1015.27 1014.70 1014.29 1014.48 1014.92 1015.16 1014.97 1014.86 1015.11 1015.94 1016.45 1016.43 1016.36 1016.25 1016.06 1015.78 1015.56 1015.64 1015.75 1016.01 1016.31 1016.57 1017.61 1018.19 1018.69 1019.10 1019.77 1020.90 1021.31 1021.84 1022.18 1022.69 1022.72 1023.02 1023.26 1023.76 1024.05 1023.14
1020.22 1020.06 1019.71 1019.24 1018.72 1018.10 1017.39 1016.63 1015.80 1015.13 1014.57 1014.28 1014.82 1015.28 1015.14 1014.99 1014.97 1015.81 1017.21 1017.41 1017.21 1017.20 1017.05 1017.14 1016.80 1016.56 1016.58 1016.69 1016.82 1017.15 1017.55 1018.47 1018.87 1019.48 1019.75 1020.60 1021.33 1022.26 1022.45 1023.11 1023.40 1024.05 1023.88 1024.12 1023.89 1023.61 1023.06
1020.53 1020.36 1019.92 1019.46 1018.89 1018.23 1017.51 1016.70 1015.83 1015.05 1014.48 1014.31 1015.16 1015.94 1015.37 1015.28 1016.23 1017.90 1017.98 1017.79 1017.74 1017.93 1017.79 1017.79 1017.60 1017.69 1017.77 1017.74 1017.81 1018.07 1018.52 1019.22 1019.53 1019.88 1020.64 1021.44 1021.94 1022.57 1022.68 1023.83 1024.36 1024.24 1024.13 1023.94 1024.05 1023.94 1023.42
1020.85 1020.67 1020.25 1019.84 1019.15 1018.41 1017.64 1016.87 1015.93 1015.06 1014.61 1014.78 1015.84 1016.31 1015.54 1015.45 1017.30 1018.62 1018.62 1018.56 1018.52 1018.44 1018.69 1018.56 1018.69 1018.63 1018.61 1018.68 1018.87 1018.79 1019.05 1019.43 1019.59 1019.98 1020.53 1021.24 1022.08 1022.59 1022.75 1024.09 1024.26 1024.30 1024.36 1024.17 1023.90 1023.47 1022.76
1021.27 1021.06 1020.54 1020.13 1019.44 1018.69 1017.98 1017.08 1016.12 1015.22 1014.66 1015.11 1016.77 1017.51 1017.37 1017.82 1019.05 1019.22 1019.48 1019.71 1019.39 1019.26 1019.50 1019.38 1019.50 1019.34 1019.44 1019.67 1019.66 1019.62 1019.65 1019.71 1019.85 1020.03 1020.40 1020.84 1021.79 1022.17 1022.14 1022.32 1022.79 1023.76 1023.88 1024.01 1023.62 1023.26 1021.75
1021.90 1021.42 1020.96 1020.49 1019.82 1019.07 1018.39 1017.42 1016.34 1015.36 1014.78 1015.29 1017.82 1019.93 1020.19 1020.31 1020.49 1020.50 1020.32 1020.51 1020.35 1020.28 1020.09 1020.02 1020.41 1020.54 1020.72 1020.95 1020.75 1020.59 1020.56 1020.47 1020.24 1020.37 1020.80 1021.35 1021.90 1021.66 1021.34 1021.51 1022.07 1022.48 1022.97 1023.23 1023.22 1021.83 1021.07
1022.11 1021.77 1021.39 1020.82 1020.39 1019.85 1018.84 1017.93 1016.68 1015.83 1015.12 1016.89 1019.22 1020.08 1020.71 1021.28 1021.26 1021.15 1021.25 1021.67 1021.30 1021.20 1021.11 1020.89 1021.09 1021.38 1021.50 1021.75 1021.73 1021.88 1021.76 1021.64 1021.29 1021.30 1021.56 1022.06 1021.81 1021.82 1021.64 1021.44 1021.59 1021.95 1022.40 1022.33 1021.87 1021.25 1020.49
1022.59 1022.26 1021.90 1021.72 1021.05 1020.35 1020.02 1018.99 1017.90 1016.68 1015.79 1018.95 1020.53 1020.54 1020.70 1022.64 1022.50 1022.42 1022.63 1022.36 1022.24 1022.14 1022.05 1021.90 1022.06 1022.25 1022.31 1022.57 1022.67 1022.31 1022.34 1022.32 1022.38 1022.62 1022.70 1022.83 1022.60 1022.66 1021.59 1021.69 1021.85 1021.95 1021.49 1021.73 1021.95 1021.48 1021.21
1023.33 1022.94 1022.55 1022.16 1021.76 1021.40 1020.77 1019.97 1019.44 1018.80 1018.42 1019.95 1021.64 1021.56 1021.82 1023.75 1023.39 1023.40 1023.22 1022.95 1022.99 1023.01 1023.03 1022.90 1022.93 1023.10 1023.40 1023.25 1022.78 1022.55 1022.72 1022.60 1022.77 1022.70 1022.83 1022.92 1023.25 1023.53 1022.56 1022.72 1022.38 1021.63 1021.87 1022.13 1022.22 1021.94 1021.84
1023.84 1023.35 1023.15 1022.87 1022.59 1022.16 1021.61 1021.05 1020.42 1019.94 1020.01 1020.89 1022.13 1022.16 1022.83 1024.20 1024.33 1024.07 1023.81 1023.77 1023.82 1024.00 1024.11 1024.03 1023.95 1024.11 1024.02 1023.86 1023.80 1023.58 1023.47 1023.60 1023.58 1023.35 1023.24 1023.25 1023.52 1023.67 1023.66 1023.46 1022.02 1021.82 1022.10 1022.43 1022.56 1022.38 1022.30
1024.38 1024.16 1023.76 1023.48 1023.19 1022.86 1022.43 1021.88 1021.38 1020.99 1020.82 1021.51 1022.61 1022.69 1023.06 1024.20 1024.57 1024.00 1024.29 1024.42 1024.90 1025.11 1025.25 1024.73 1024.59 1024.50 1024.55 1024.86 1025.15 1025.74 1025.23 1024.94 1024.58 1024.13 1023.88 1023.89 1024.00 1024.48 1024.46 1024.43 1023.17 1022.16 1021.89 1022.08 1022.54 1022.79 1022.63
1025.05 1024.82 1024.37 1024.04 1023.68 1023.34 1022.95 1022.61 1022.24 1021.84 1021.62 1021.96 1023.09 1023.06 1023.14 1024.36 1024.35 1024.22 1024.30 1024.53 1024.98 1025.71 1025.98 1025.78 1025.62 1025.33 1025.31 1026.03 1026.60 1026.77 1026.34 1025.97 1025.96 1025.58 1025.16 1025.43 1025.39 1025.32 1025.09 1024.81 1023.09 1021.63 1021.77 1022.17 1022.78 1023.02 1022.43
1025.46 1025.19 1024.98 1024.55 1024.22 1023.91 1023.51 1023.11 1022.84 1022.54 1022.28 1022.56 1023.70 1023.43 1023.52 1024.25 1024.17 1023.99 1024.06 1024.38 1025.10 1025.47 1025.81 1026.12 1026.68 1026.58 1026.50 1027.00 1027.31 1027.44 1027.45 1027.17 1027.15 1026.12 1025.70 1025.85 1026.13 1025.89 1025.46 1025.07 1023.34 1021.43 1021.91 1022.08 1021.76 1021.86 1022.23
1025.97 1025.73 1025.43 1025.12 1024.75 1024.42 1024.01 1023.56 1023.34 1022.96 1022.79 1022.57 1023.55 1023.80 1023.80 1024.15 1024.45 1024.13 1023.88 1023.75 1023.88 1024.08 1024.76 1025.94 1026.63 1026.57 1026.53 1027.37 1027.73 1027.61 1027.78 1028.13 1028.55 1027.87 1026.46 1026.49 1025.54 1025.33 1024.64 1022.82 1021.52 1021.32 1021.12 1020.93 1021.24 1021.58 1021.95
Wind_Speed
10 11 11 12 12 12 13 13 12 12 13 12 12 10 11 12 10 9 8 8 7 7 7 7 5 4 1 3 2 1 6 4 2 2 3 3 2 3 4 4 2 2 3 2 1 3 1
10 12 12 13 13 13 14 14 13 14 14 13 12 12 12 11 10 9 8 8 7 7 6 5 3 2 3 1 2 3 4 1 3 2 2 3 4 3 5 2 2 3 3 3 2 3 2
11 11 12 13 14 14 14 14 14 14 14 14 13 12 11 11 10 10 8 7 7 6 4 3 1 2 2 2 0 2 3 1 1 2 4 1 3 3 4 3 1 3 3 2 5 5 1
10 12 13 13 13 14 14 14 15 14 14 14 13 12 11 11 10 9 7 7 5 4 2 1 2 1 3 1 1 4 4 2 3 4 5 3 3 6 4 3 5 3 4 1 1 7 4
10 12 14 14 14 14 15 15 15 15 15 15 13 12 11 10 10 8 7 6 3 1 1 2 2 2 2 1 2 2 3 1 1 3 4 3 6 4 3 5 4 6 2 1 3 3 4
10 12 14 14 14 15 15 15 15 15 15 15 14 12 11 11 10 9 7 4 4 4 2 1 1 2 0 1 2 2 3 2 4 3 3 6 5 4 4 4 4 4 2 2 4 2 3
10 12 14 14 15 15 16 16 16 16 16 16 15 13 12 11 10 8 2 3 5 4 4 2 2 1 1 4 0 5 3 1 2 7 1 3 4 4 3 1 2 5 3 2 3 1 3
10 13 14 15 15 16 16 16 17 17 17 17 15 13 12 11 7 2 2 4 2 1 1 0 1 1 0 0 1 4 2 3 2 3 2 5 3 2 6 3 3 2 2 4 4 1 0
11 13 13 14 15 15 16 17 17 17 17 17 15 13 13 10 1 4 3 4 1 1 3 1 0 1 1 1 2 2 3 1 3 4 2 5 1 2 2 2 3 2 3 2 3 5 2
11 13 13 14 15 16 16 17 17 17 17 16 15 13 12 11 3 1 3 1 2 1 6 2 0 1 1 1 1 2 3 2 4 5 4 1 1 3 2 2 5 3 1 3 2 4 3
11 12 13 14 15 16 16 17 17 18 16 16 15 12 9 6 6 3 0 2 1 3 4 1 0 0 0 2 2 3 1 2 5 5 5 3 5 3 2 1 2 3 2 3 3 4 3
11 12 12 14 15 16 17 18 18 18 16 15 13 10 2 4 4 1 2 1 3 8 7 0 0 1 1 2 1 1 2 7 4 4 4 3 1 2 2 3 3 6 4 5 4 3 2
11 12 13 14 15 16 17 17 17 17 16 15 9 6 5 1 1 2 1 3 7 6 1 1 1 3 2 2 1 2 1 2 5 3 3 2 1 1 1 4 2 3 4 4 6 4 6
11 12 13 14 16 17 18 19 19 19 17 13 5 4 4 2 2 1 3 7 2 2 2 1 1 1 1 2 0 2 1 2 1 5 3 4 6 4 2 3 6 4 6 7 7 4 3
11 13 14 15 17 18 19 19 20 18 15 10 2 2 2 4 3 2 6 5 7 5 1 2 2 0 1 1 1 2 3 3 3 4 8 5 4 1 3 1 2 3 4 2 8 1 2
13 14 16 17 18 19 20 20 20 18 15 5 2 2 2 5 1 5 7 5 1 1 1 1 2 0 2 2 1 1 1 4 1 0 2 2 3 1 2 1 3 3 1 4 3 2 6
15 16 17 19 19 20 21 22 22 19 15 2 4 3 2 4 2 6 3 4 1 2 3 3 2 2 2 3 1 2 3 2 5 2 3 4 4 1 1 6 7 1 2 3 3 4 5
16 17 19 20 21 22 23 23 22 19 13 6 3 2 3 1 5 1 2 1 2 3 4 3 3 3 3 4 2 1 3 3 2 1 1 3 4 3 4 1 3 2 4 4 5 6 3
17 18 20 21 23 24 25 25 24 17 8 3 3 1 2 3 2 1 1 2 3 5 4 5 5 4 2 3 3 2 3 2 0 2 4 3 1 4 8 4 2 2 3 3 4 3 6
18 19 21 22 24 25 26 25 26 19 6 5 4 3 5 6 1 5 3 4 3 3 3 2 2 2 2 3 1 3 3 1 1 1 5 4 2 8 10 7 5 3 4 4 3 4 5
17 20 22 23 25 28 28 27 27 23 8 5 5 0 2 3 5 5 3 2 2 5 4 6 4 5 3 1 5 2 2 5 2 2 2 2 5 5 6 6 3 6 7 7 10 12 13
19 20 22 24 25 27 29 29 31 29 5 7 4 3 4 2 2 3 5 3 1 2 3 3 4 3 2 2 3 3 4 3 5 4 1 3 4 3 4 8 9 12 6 11 16 16 15
19 21 22 23 25 27 27 28 30 33 11 5 2 2 5 5 3 4 1 0 1 2 2 5 1 2 3 1 3 8 8 6 5 2 4 1 1 4 7 2 11 11 8 6 2 3 4
19 20 22 23 24 24 26 27 27 27 15 5 3 2 5 1 3 2 1 1 2 2 2 2 2 0 2 6 6 3 3 4 5 6 6 3 3 2 7 3 4 7 3 3 5 5 4
19 22 22 22 23 24 25 26 27 25 18 6 2 3 4 2 1 1 0 1 3 5 2 2 1 1 4 5 4 6 4 3 2 1 2 6 3 3 2 3 7 2 2 1 3 7 2
19 19 20 21 22 23 24 25 25 24 15 5 5 1 4 7 4 3 2 2 2 1 5 2 2 4 3 3 3 3 3 2 3 5 3 2 1 3 3 4 6 5 4 3 3 6 4
17 18 20 21 21 22 22 23 22 22 18 5 3 3 4 5 4 5 3 4 4 2 2 4 4 4 3 2 2 3 4 3 3 3 3 2 1 5 4 5 10 5 4 2 4 7 3
18 19 19 20 20 20 20 20 20 19 17 4 0 4 3 3 3 6 5 5 3 2 4 4 5 4 3 3 3 3 3 4 2 5 5 6 5 5 3 3 9 6 2 6 7 3 4
17 18 18 18 19 19 20 19 18 17 17 5 3 2 2 4 2 0 3 2 4 5 6 1 4 3 3 4 2 2 3 2 1 4 2 3 8 5 9 9 4 5 6 3 4 5 6
Wind_Direction
10 10 14 5 4 1 359 354 353 350 344 346 339 336 337 333 330 324 312 301 301 301 298 294 320 359 22 42 231 4 342 344 101 142 78 117 112 123 144 134 114 100 158 101 114 78 55
11 4 8 2 360 359 359 355 353 353 350 347 341 337 337 326 326 314 309 298 291 286 283 298 321 22 79 255 123 344 321 159 62 93 66 50 136 136 107 85 109 128 108 110 41 28 70
5 8 -0 3 358 358 0 356 353 351 351 343 340 336 323 325 320 311 303 294 284 278 299 302 4 69 110 249 144 4 26 110 336 107 108 94 126 95 132 109 147 121 109 110 14 343 22
1 6 358 1 359 357 356 356 353 350 347 344 342 332 327 322 314 308 303 287 286 284 293 331 103 78 215 113 159 24 340 60 21 55 90 112 86 103 76 136 33 66 55 57 21 349 334
2 4 360 357 357 356 355 354 353 350 348 345 339 333 326 324 318 318 309 306 283 234 164 78 88 171 257 122 65 315 8 111 45 62 61 81 65 83 47 93 23 9 207 226 317 46 318
5 6 -0 356 356 355 354 352 351 349 348 344 340 337 331 330 328 326 327 95 107 102 71 107 46 49 229 213 320 340 336 51 99 100 51 45 49 71 40 84 214 212 219 239 248 340 358
6 13 1 355 354 353 352 350 348 347 346 345 343 338 331 332 330 341 74 61 27 349 47 184 153 174 34 302 267 16 344 80 81 56 131 11 73 221 229 146 95 114 133 244 264 79 309
11 15 3 355 353 352 350 347 346 345 344 343 340 335 330 327 323 339 75 94 108 186 317 355 122 37 275 1 127 350 349 125 112 165 101 24 223 140 115 104 113 106 141 256 273 59 220
9 16 5 355 351 350 347 346 345 345 343 341 338 335 330 332 125 48 77 111 51 266 113 345 141 154 259 26 160 295 12 108 96 133 161 169 158 150 114 122 135 170 190 217 225 328 43
5 14 6 356 351 349 347 345 343 345 342 339 337 335 334 331 64 196 51 44 32 309 66 279 314 338 346 94 43 324 7 109 48 177 135 148 116 158 134 197 133 252 122 113 50 43 256
12 13 5 357 351 350 349 346 344 345 342 339 338 336 337 43 140 68 82 356 0 53 14 234 8 231 233 131 132 7 1 29 150 146 113 238 158 163 180 218 186 188 84 91 95 87 42
20 13 6 1 354 352 349 346 344 344 342 341 337 339 358 24 55 8 330 0 59 45 262 76 91 296 87 27 47 286 93 50 135 106 51 85 4 56 118 68 59 143 87 57 60 97 25
27 16 8 5 358 353 349 344 343 344 342 343 338 357 56 68 151 321 25 50 37 131 328 353 343 28 357 334 18 38 53 24 164 95 226 82 168 75 87 98 35 84 70 330 346 10 223
29 20 11 7 2 355 350 346 344 343 339 339 0 48 27 62 330 8 68 51 189 234 224 0 304 299 253 15 290 355 55 287 226 80 100 163 302 164 1 153 182 179 148 161 215 222 272
31 24 15 10 6 359 353 349 344 340 337 331 351 9 52 346 353 71 74 74 214 198 177 329 268 314 305 43 237 12 204 184 201 183 167 146 259 120 56 108 90 186 202 129 101 48 25
34 27 20 15 11 3 357 352 346 342 338 342 89 61 343 324 16 64 76 224 180 22 17 350 238 118 258 275 330 5 205 251 184 114 145 181 351 359 104 103 38 146 147 74 4 266 258
39 30 26 20 14 8 2 356 350 346 342 155 58 57 274 349 69 52 153 226 14 32 32 9 328 313 277 337 331 284 332 12 6 48 75 128 107 264 97 195 182 70 325 34 116 153 208
42 34 29 23 18 12 6 1 354 349 346 58 98 25 322 37 52 20 112 125 13 21 25 44 88 47 19 1 307 300 342 13 357 142 43 3 146 231 228 296 167 124 193 150 141 254 226
43 36 33 25 21 15 10 4 0 356 9 118 82 277 336 76 107 27 247 79 72 42 40 28 45 40 29 40 1 26 16 271 314 49 171 215 332 352 328 0 25 220 212 132 118 107 202
46 39 35 29 24 20 13 7 6 0 12 84 80 30 350 48 36 103 35 360 72 28 64 53 51 82 34 26 352 290 339 354 288 181 150 153 168 181 234 216 136 200 204 199 164 166 236
50 43 38 32 28 23 16 10 9 6 4 90 27 115 176 5 17 68 71 345 29 12 11 26 52 61 107 28 329 269 23 338 238 211 94 121 227 225 258 270 212 220 215 191 202 235 245
50 45 40 34 30 27 21 14 10 10 30 78 94 99 2 57 355 59 10 6 66 336 28 351 92 327 257 203 222 268 33 241 245 25 71 32 279 64 283 254 254 274 251 226 236 250 266
49 44 41 36 32 30 26 24 22 12 32 83 1 15 101 340 25 67 331 18 333 307 52 55 58 302 263 202 256 235 220 252 286 26 357 281 255 349 280 70 325 301 244 229 205 219 186
50 46 42 37 34 32 29 30 31 31 44 96 45 74 80 317 81 128 358 0 353 20 302 348 28 314 353 315 276 259 222 237 238 254 195 204 122 193 281 9 272 244 206 170 207 257 237
47 45 42 38 34 31 30 29 30 35 46 76 50 81 98 91 66 284 107 39 354 338 308 277 6 306 326 335 19 358 350 34 42 64 92 218 190 256 253 216 296 79 324 78 55 287 231
48 43 41 39 34 31 29 28 27 27 37 76 54 36 94 117 240 126 135 100 193 294 329 237 24 324 4 60 57 124 225 230 304 335 51 79 241 168 17 279 260 227 245 203 161 274 241
48 43 39 36 33 29 28 26 25 25 29 72 53 19 88 104 230 140 160 172 138 105 208 298 323 3 46 76 110 179 243 188 252 239 221 336 44 219 243 251 283 222 221 178 89 245 205
43 38 34 31 28 26 24 24 22 22 23 74 70 7 96 137 220 173 173 144 126 146 148 243 35 335 34 91 145 221 149 238 267 253 202 169 147 211 148 216 280 167 132 150 216 215 204
37 33 29 25 22 19 18 20 20 20 19 55 57 360 355 101 217 269 227 207 185 184 136 59 177 175 202 84 198 160 227 85 153 269 32 302 188 195 177 218 221 208 220 236 187 201 210